STARLINK-11505, 62469

Orbit data source: Space-Track

STARLINK-11505, 62469 is a payload satellite owned by SpaceX/Seattle (US) in LEO that was launched on Tue, 31 Dec 2024 UTC via an FALCON 9 launch vehicle from the Air Force Eastern Test Range (AFETR). Payloads include a variety of satellites, spacecraft, and rockets equipped with specific instruments for various scientific and technological missions. These include communications satellites like Starlink; space stations such as the ISS; scientific satellites like the Hubble; Earth observation satellites from companies like Planet Labs, Umbra, and HawkEye 360; GPS; miniature CubeSats for education and research; and military/defense satellites.

Loading next visibility...
STARLINK-11505 details
Identifier
62469, 2024-254H
Orbit
LEO
Last TLE update21 hours ago
Origin
Flag of USSpaceX/Seattle (US)
ManufacturerSpaceX/Seattle
MissionOperational spacecraft
Bus & MotorSTARLINK V2M, Unknown motor
Mass730 kg wet, ~700 kg dry
Launch date (UTC)
2024-12-31 (4 weeks ago)
Launch vehicle
FALCON 9
Launch site
Air Force Eastern Test Range (AFETR)
Object type
Payload
Rocket body
Debris
Shape & HBRUnknown
Radar Cross SectionLarge (>1 m²)

Expand to show TLE details & history

TLE from 21 hours ago
0 STARLINK-11505
1 62469U 24254H   25024.91667824 -.01090512  00000-0 -64261-2 0  9991
2 62469  42.9931 168.8632 0001686 280.0770 318.2426 15.79661593  5111
Epoch: 2025-01-24T22:00Z
Definitive object data (Epoch: 2025-01-24T22:00:00.999Z)
Latitude-35.64408°
Longitude-55.72054°
Altitude340.785 km
Speed7.705 km/s
True Right ascension02h 35m 01s
True Declination-35° 28' 17"
Sunlit
Object was in daylight at TLE epoch
Visualization TLE readout
Latitude28.4766°
Longitude-146.25663°
Altitude338.79 km
Speed7.709 km/s
Apparent Right ascension22h 12m 28s
Apparent Declination-37° 52' 48"
Sunlit
Object is in daylight
Visualization observer readout
Local Sidereal Time20:10:24
Azimuth156.163° SSE
Elevation7.326°
Doppler factor1
Orbital elements
Apogee altitude334.52 km
Perigee altitude332.257 km
Semi-major axis6,711.526 km
Eccentricity0.0001686
Inclination42.9931°
RAAN168.8632°
Arg. of periapsis280.077°
True anomaly318.22973°
Mean anomaly318.2426°
Eccentric anomaly318.23617°
Mean motion3.9474 °/min
BSTAR-0.0064261
Orbital period91.2 mins
Loading maneuver chart data...
Loading historical data...
Loading historical data...
Loading historical data...
Loading historical data...
Loading historical data...
Loading historical data...
Loading historical data...

STARLINK-11505 Visibility forecast

Observer location: undefined°, undefined

Span
Click to sort rows by Start time (UTC) header in descending order
Start Az.
Max El. time (UTC)
Max El. Az.
Max El.
End time (UTC)
End Az.
4 mins2025-01-26 12:43:33.820Z224.12° SW2025-01-26 12:45:33.820Z154.278° SSE35.457°2025-01-26 12:47:33.820Z85.233° E
4 mins2025-01-26 14:19:33.820Z281.058° WNW2025-01-26 14:21:33.820Z9.971° NNE36.5°2025-01-26 14:23:33.820Z65.3° ENE
4 mins2025-01-26 17:31:33.820Z270.451° WNW2025-01-26 17:33:33.820Z177.378° S33.817°2025-01-26 17:35:33.820Z132.609° SE
|